Volver al catálogo

SL-14 DEB

ActivoPO
NORAD 17271·DEBRIS·🇷🇺 Russia

Lanzado Dec 18, 1986 desde Plesetsk Cosmodrome

Loading…

Próximos Pases (próximas 24 horas)

TLE

ActualizadoSource: Space-Track

Época: Sep 14, 2026, 10:20 UTC

1 17271U 86101F   26257.43095681  .00000378  00000-0  23503-3 0  9996
2 17271  82.4081 144.9822 0024877 236.8299 299.5929 14.02646114 24415

Sigue SL-14 DEB en tiempo real con AllMySat

Download on the App Store